[Date Prev][Date Next][Thread Prev][Thread Next] - [Date Index][Thread Index][Author Index]

2 line ISS Keps 6-13



ISS
1 25544U 98067A   01164.34102419  .00035424  00000-0  40316-3 0   790
2 25544  51.5709 108.1050 0017296 154.8088 343.8642 15.61751985146473


----
Via the sarex mailing list at AMSAT.ORG courtesy of AMSAT-NA.
To unsubscribe, send "unsubscribe sarex" to Majordomo@amsat.org



AMSAT Top AMSAT Home